Port Angeles, WA

7:28 AM PST on December 14, 2017 (GMT -0800)
Fairchild International

Weather History for KCLM - August, 2014

Change the Weather History Date:

Monday, August 4, 2014

  Actual Average Record
Temperature  
Mean Temperature 62 °F -  
Max Temperature 73 °F 69 °F 84 °F (2012)
Min Temperature 52 °F 52 °F 44 °F (1950)
Degree Days  
Heating Degree Days 3    
Growing Degree Days 12 (Base 50)    
Moisture  
Dew Point 53 °F    
Average Humidity 77    
Maximum Humidity 94    
Minimum Humidity 53    
Precipitation  
Precipitation 0.00 in - - ()
Sea Level Pressure  
Sea Level Pressure 29.98 in    
Wind  
Wind Speed 5 mph (NW)    
Max Wind Speed 14 mph    
Max Gust Speed 22 mph    
Visibility 10 miles    
Events      
Averages and records for this station are not official NWS values.
T = Trace of Precipitation, MM = Missing Value Source: NWS Daily Summary

Daily Weather History Graph

Daily Weather History Graph

Search for Another Location

Airport or City:

Trip Planner

Search our weather history database for the weather conditions in past years. The results will help you decide how hot, cold, wet, or windy it might be!

Date:

Astronomy

Aug. 04, 2014 Rise Set
Actual Time 5:53 AM PDT 8:45 PM PDT
Civil Twilight 5:17 AM PDT 9:21 PM PDT
Nautical Twilight 4:31 AM PDT 10:07 PM PDT
Astronomical Twilight 3:35 AM PDT 11:02 PM PDT
Moon 3:02 PM PDT (8/4) 12:08 AM PDT (8/4)
Length of Visible Light 16h 03m
Length of Day
14h 51m
First Quarter, 58% of the Moon is Illuminated
Aug 4
First Quarter
Aug 10
Full
Aug 17
Last Quarter
Aug 25
New
Sep 2
First Quarter

Hourly Weather History & Observations

Time (PDT) Temp. Dew Point Humidity Pressure Visibility Wind Dir Wind Speed Gust Speed Precip Events Conditions
12:53 AM 57.9 °F 52.0 °F 81% 29.97 in 10.0 mi NW 8.1 mph - N/A   Clear
1:53 AM 55.4 °F 51.8 °F 88% 29.99 in 10.0 mi Calm Calm - N/A   Clear
2:53 AM 55.0 °F 51.1 °F 86% 29.99 in 10.0 mi Calm Calm - N/A   Clear
3:53 AM 53.1 °F 50.0 °F 89% 29.99 in 10.0 mi Calm Calm - N/A   Clear
4:53 AM 54.0 °F 51.1 °F 90% 29.99 in 10.0 mi Calm Calm - N/A   Clear
5:53 AM 52.0 °F 50.0 °F 93% 29.99 in 10.0 mi West 5.8 mph - N/A   Clear
6:53 AM 57.0 °F 53.1 °F 87% 30.00 in 10.0 mi Calm Calm - N/A   Clear
7:53 AM 62.1 °F 55.9 °F 80% 30.01 in 10.0 mi Calm Calm - N/A   Clear
8:53 AM 64.9 °F 55.0 °F 70% 30.01 in 10.0 mi North 3.5 mph - N/A   Clear
9:53 AM 66.9 °F 55.0 °F 66% 30.01 in 10.0 mi North 4.6 mph - N/A   Clear
10:53 AM 70.0 °F 54.0 °F 57% 30.01 in 10.0 mi North 4.6 mph - N/A   Clear
11:53 AM 71.1 °F 54.0 °F 55% 30.00 in 10.0 mi North 5.8 mph - N/A   Clear
12:53 PM 70.0 °F 53.1 °F 55% 30.00 in 10.0 mi Variable 6.9 mph - N/A   Clear
1:53 PM 71.1 °F 53.1 °F 53% 29.99 in 10.0 mi NW 6.9 mph - N/A   Clear
2:53 PM 70.0 °F 54.0 °F 57% 29.98 in 10.0 mi WNW 6.9 mph - N/A   Clear
3:53 PM 72.0 °F 54.0 °F 53% 29.97 in 10.0 mi NW 10.4 mph - N/A   Clear
4:53 PM 71.1 °F 54.0 °F 55% 29.96 in 10.0 mi WNW 10.4 mph - N/A   Clear
5:53 PM 69.1 °F 54.0 °F 58% 29.96 in 10.0 mi NNW 8.1 mph - N/A   Clear
6:53 PM 64.9 °F 54.0 °F 68% 29.95 in 10.0 mi WNW 11.5 mph 18.4 mph N/A   Clear
7:53 PM 61.0 °F 54.0 °F 78% 29.95 in 10.0 mi NW 6.9 mph - N/A   Clear
8:53 PM 57.0 °F 53.1 °F 87% 29.96 in 10.0 mi West 6.9 mph - N/A   Clear
9:23 PM 55.9 °F 53.1 °F 90% 29.96 in 10.0 mi WNW 9.2 mph - N/A   Partly Cloudy
9:48 PM 55.4 °F 53.6 °F 94% 29.97 in 10.0 mi West 6.9 mph - N/A   Mostly Cloudy
9:53 PM 55.0 °F 52.0 °F 89% 29.97 in 10.0 mi West 9.2 mph - N/A   Scattered Clouds
10:14 PM 55.0 °F 53.1 °F 93% 29.97 in 10.0 mi WNW 9.2 mph - N/A   Mostly Cloudy
10:53 PM 55.0 °F 53.1 °F 93% 29.97 in 10.0 mi West 13.8 mph - N/A   Mostly Cloudy
11:50 PM 55.4 °F 53.6 °F 94% 29.98 in 10.0 mi WNW 12.7 mph 20.7 mph N/A   Scattered Clouds
11:53 PM 55.9 °F 53.1 °F 90% 29.98 in 10.0 mi NW 13.8 mph 21.9 mph N/A   Scattered Clouds